#timestamp,LO_Frequency,Hit,StdDev 
1706806815.9,286046998.6,N
1706806835.7,286046998.8,N
1706806855.6,286047000.3,N
1706806875.4,286047002.3,N
1706806895.2,286047002.3,N
1706806915.1,286047001.8,N
1706806916.0,286047001.8,N
1706806935.8,286047002.1,N
1706806955.6,286047002.4,N
1706806975.5,286047000.2,N
1706806995.3,286047001.0,N
1706807015.1,286047002.3,N
1706807035.9,286047002.1,N
1706807055.7,286047001.9,N
1706807075.6,286047003.9,N
1706807095.4,286047001.3,N
1706807115.2,286047003.4,N
1706807135.1,286047002.1,N
1706807136.0,286047002.1,N
1706807155.8,286047004.4,N
1706807175.6,286047005.2,N
1706807195.5,286047002.0,N
1706807215.3,286047005.5,N
1706807235.1,286047004.3,N
1706807255.9,286047000.8,N
1706807275.7,286047000.6,N
1706807295.6,286046999.6,N
1706807315.4,286046998.0,N
1706807335.2,286046994.9,N
1706807355.1,286046996.6,N
1706807356.0,286046996.6,N
1706807375.8,286046998.1,N
1706807395.7,286046999.8,N
1706807415.5,286047002.3,N
1706807435.3,286047002.6,N
1706807455.2,286047000.9,N
1706807475.9,286047000.9,N
1706807495.7,286047001.0,N
1706807515.6,286047002.0,N
1706807535.4,286047002.5,N
1706807555.3,286047003.9,N
1706807575.1,286047004.4,N
1706807576.0,286047004.4,N
1706807595.8,286047002.4,N
1706807615.7,286047001.0,N
1706807635.5,286046998.5,N
1706807655.3,286047001.2,N
1706807675.2,286046998.4,N
1706807695.0,286047000.4,N
1706807695.9,286047000.4,N
1706807715.8,286047000.9,N
1706807735.6,286047002.1,N
1706807755.4,286047000.2,N
1706807775.3,286046998.5,N
1706807795.1,286047001.0,N
1706807815.8,286047000.6,N
1706807835.7,286046999.8,N
1706807855.5,286047002.1,N
1706807875.4,286046999.7,N
1706807895.2,286047002.5,N
1706807915.0,286047001.4,N
1706807915.9,286047001.4,N
1706807935.8,286047003.5,N
1706807955.6,286047004.3,N
1706807975.4,286047003.6,N
1706807995.3,286047002.7,N
1706808015.1,286046998.5,N
1706808035.9,286046998.5,N
1706808055.7,286046996.8,N
1706808075.5,286046999.4,N
1706808095.4,286047001.0,N
1706808115.2,286047002.5,N
1706808135.0,286047003.7,N
1706808135.9,286047003.7,N
1706808155.8,286047001.9,N
1706808175.6,286047002.4,N
1706808195.5,286047001.4,N
1706808215.3,286047003.4,N
1706808235.1,286047001.4,N
1706808255.9,286047004.4,N
1706808275.7,286047005.7,Y
1706808295.5,286047003.0,P
1706808315.4,286047002.8,P
1706808335.2,286047004.4,P
1706808355.1,286047004.3,Y
1706808356.0,286047004.3,P
1706808375.8,286046999.8,N
1706808395.6,286047002.6,N
1706808415.5,286047001.8,N
1706808435.3,286047000.0,N
1706808455.2,286047000.5,N
1706808475.9,286046998.3,N
1706808495.7,286047000.5,N
1706808515.6,286046998.6,N
1706808535.4,286047000.4,N
1706808555.2,286046999.0,N
1706808575.1,286047000.7,N
1706808576.0,286047000.7,N
1706808595.8,286046999.3,N
1706808615.7,286046996.9,N
1706808635.5,286046996.5,N
1706808655.3,286046999.1,N
1706808675.2,286046998.4,N
1706808695.9,286046996.5,N
1706808715.7,286046995.5,N
1706808735.6,286046997.2,N
1706808755.4,286046996.5,N
1706808775.2,286046998.9,N
1706808795.1,286047000.7,N
1706808796.0,286047000.7,N
1706808815.8,286047000.8,N
1706808835.6,286046998.6,N
1706808855.5,286047000.4,N
1706808875.3,286047001.0,N
1706808895.2,286047001.6,N
1706808915.9,286047001.5,N
1706808935.7,286047000.2,N
1706808955.6,286046998.7,N
1706808975.4,286046998.6,N
1706808995.2,286046996.5,N
1706809015.1,286046999.1,N
1706809016.0,286046999.1,N
1706809035.8,286046997.1,N
1706809055.7,286046999.3,N
1706809075.5,286046998.2,N
1706809095.3,286047002.0,N
1706809115.2,286047002.5,N
1706809135.0,286046998.7,N
1706809135.9,286046998.7,N
1706809155.8,286047002.3,N
1706809175.6,286047002.0,N
1706809195.4,286047002.5,N
1706809215.3,286047003.1,N
1706809235.1,286047002.9,N
1706809255.8,286047004.1,N
1706809275.7,286047004.4,N
1706809295.5,286047001.6,N
1706809315.3,286046998.6,N
1706809335.2,286046997.0,N
1706809355.0,286046999.5,N
1706809355.9,286046999.5,N
1706809375.7,286046998.4,N
1706809395.6,286046998.5,N
1706809415.4,286046998.6,N
1706809435.3,286047000.2,N
1706809455.1,286047002.2,N
1706809456.0,286047002.2,N
1706809475.8,286047003.9,N
1706809495.7,286047000.3,N
1706809515.5,286047001.2,N
1706809535.3,286047001.1,N
1706809555.2,286047001.5,N
1706809575.0,286046999.8,N
1706809575.9,286046999.8,N
1706809595.8,286047002.1,N
1706809615.6,286047004.1,N
1706809635.4,286047001.6,N
1706809655.3,286047002.8,N
1706809675.1,286046999.9,N
1706809695.8,286047001.6,N
1706809715.7,286047002.4,N
1706809735.5,286047000.7,N
1706809755.4,286046999.9,N
1706809775.2,286047001.6,N
1706809795.0,286047001.5,N
1706809795.9,286047001.5,N
1706809815.8,286047004.1,N
1706809835.6,286047001.8,N
1706809855.4,286047001.8,N
1706809875.3,286047004.4,N
1706809895.1,286047001.8,N
1706809915.8,286047004.1,N
1706809935.7,286047002.5,N
1706809955.5,286047003.8,N
1706809975.3,286047003.6,N
1706809995.2,286047001.8,N
1706810015.0,286047002.3,N
1706810015.9,286047002.3,N
1706810035.8,286047001.8,N
1706810055.6,286047002.6,N
1706810075.4,286047001.4,N
1706810095.3,286047001.9,N
1706810115.1,286047004.0,Y
1706810135.8,286047002.4,P
1706810155.7,286047000.7,P
1706810175.5,286047000.3,N
1706810195.4,286047000.0,N
1706810215.2,286046998.1,N
1706810235.0,286047002.4,N
1706810235.9,286047002.4,N
1706810255.8,286046999.9,N
1706810275.6,286047002.0,N
1706810295.5,286047004.3,Y
1706810315.3,286047000.5,P
1706810335.1,286046998.5,P
1706810355.9,286046998.2,N
1706810375.7,286047000.3,N
1706810395.5,286046999.9,N
